User: anonymous   Login
Location: Kott?ru
(16.6209°N, 80.6208°E)
Time: 12:17:09
(UTC+00:00)
Language:

Delta 202 - Orbit

View from above orbital plane
View from above orbital plane
View from above satellite
View from above satellite

Ground track
Ground track

The orbit data is extracted from the following two-line orbital elements,

1 21048U 91001B   20329.78682884 +.00000237 +00000-0 +11294-3 0  9995
2 21048 018.4603 082.5743 1188912 221.1818 129.2560 11.85278248295390
Epoch (UTC): 24 November 2020 18:53:02
Eccentricity: 0.1188912
inclination: 18.4603°
perigee height: 781 km
apogee height: 2713 km
right ascension of ascending node: 82.5743°
argument of perigee: 221.1818°
revolutions per day: 11.85278248
mean anomaly at epoch: 129.2560°
orbit number at epoch: 29539

The dashed part of the orbit path shows where the satellite is in the earth's shadow,  

DLR